FW1418 Weather Reports


Display with metric or nautical units.
time (UTC)temp
F
wind
direction
speed
MPH
gust
MPH
rain 1hr
in
rain 24hr
in
rain mn
in
humidity
%
barometer
mb
20260507141524 45 268 6.0 14.0 0.00 0.00 0.00 61 1013.8
20260507140022 44 223 1.0 10.0 0.00 0.00 0.00 66 1013.9
20260507134519 44 209 5.0 10.0 0.00 0.00 0.00 67 1014.0
20260507133017 44 252 5.0 11.0 0.00 0.00 0.00 66 1013.9
20260507131517 43 182 3.0 9.0 0.00 0.00 0.00 67 1013.9
20260507130024 43 292 1.0 9.0 0.00 0.00 0.00 69 1013.9
20260507124518 43 205 2.0 8.0 0.00 0.00 0.00 70 1013.7
20260507123012 42 179 1.0 6.0 0.00 0.00 0.00 73 1013.7
20260507121507 41 211 2.0 6.0 0.00 0.00 0.00 73 1013.7
20260507120005 40 205 2.0 5.0 0.00 0.00 0.00 76 1013.6
20260507114504 40 5 0.0 2.0 0.00 0.00 0.00 78 1013.6
20260507113100 37 360 0.0 2.0 0.00 0.00 0.00 84 1013.5
20260507111600 33 360 0.0 0.0 0.00 0.00 0.00 87 1013.4
20260507110059 33 360 0.0 1.0 0.00 0.00 0.00 87 1013.1
20260507110000 33 360 0.0 1.0 0.00 0.00 0.00 89 1013.0
20260507104600 32 360 0.0 2.0 0.00 0.00 0.00 88 1013.0
20260507103058 31 360 1.0 3.0 0.00 0.00 0.00 88 1013.0
20260507101558 31 360 1.0 3.0 0.00 0.00 0.00 88 1013.0
20260507100154 31 360 2.0 4.0 0.00 0.00 0.00 86 1013.0
20260507094553 32 360 2.0 3.0 0.00 0.00 0.00 86 1013.0
20260507093053 32 360 2.0 4.0 0.00 0.00 0.00 85 1013.1
20260507091549 32 360 0.0 2.0 0.00 0.00 0.00 84 1013.1
20260507090047 33 360 1.0 2.0 0.00 0.00 0.00 84 1013.3
20260507084544 33 360 0.0 2.0 0.00 0.00 0.00 83 1013.3
20260507083043 34 360 0.0 2.0 0.00 0.00 0.00 83 1013.3
20260507081542 34 360 0.0 0.0 0.00 0.00 0.00 83 1013.4
20260507080039 34 360 0.0 1.0 0.00 0.00 0.00 83 1013.4
20260507074544 34 360 2.0 3.0 0.00 0.00 0.00 82 1013.4
20260507073043 34 360 2.0 3.0 0.00 0.00 0.00 82 1013.6
20260507071535 35 360 0.0 1.0 0.00 0.00 0.00 82 1013.6
20260507070034 36 360 0.0 1.0 0.00 0.00 0.00 81 1013.7
20260507064530 36 360 1.0 2.0 0.00 0.00 0.00 80 1014.0
20260507063039 36 360 0.0 2.0 0.00 0.00 0.00 81 1014.1
20260507061527 36 360 0.0 2.0 0.00 0.00 0.00 80 1014.2
20260507060039 36 360 0.0 2.0 0.00 0.00 0.00 79 1014.2
20260507054521 37 360 1.0 3.0 0.00 0.00 0.00 80 1014.3
20260507053019 37 360 0.0 2.0 0.00 0.00 0.00 79 1014.4
20260507051517 37 360 1.0 2.0 0.00 0.00 0.00 77 1014.5
20260507050015 38 360 1.0 2.0 0.00 0.00 0.00 76 1014.5
20260507044515 38 360 2.0 3.0 0.00 0.00 0.00 75 1014.4
20260507043011 38 360 2.0 3.0 0.00 0.00 0.00 76 1014.5
20260507041509 38 360 0.0 2.0 0.00 0.00 0.00 76 1014.5
20260507040006 38 360 1.0 2.0 0.00 0.00 0.00 76 1014.5
20260507034520 39 360 0.0 2.0 0.00 0.00 0.00 74 1014.6
20260507033006 39 360 0.0 2.0 0.00 0.00 0.00 73 1014.7
20260507031507 39 360 0.0 2.0 0.00 0.00 0.00 73 1014.8
20260507030009 39 360 1.0 2.0 0.00 0.00 0.00 72 1014.8
20260507024504 39 360 0.0 2.0 0.00 0.00 0.00 72 1014.8
20260507023004 40 360 0.0 2.0 0.00 0.00 0.00 69 1014.8
20260507021503 40 360 0.0 3.0 0.00 0.00 0.00 68 1014.6
20260507020006 40 360 0.0 1.0 0.00 0.00 0.00 68 1014.6
20260507014502 40 360 1.0 3.0 0.00 0.00 0.00 66 1014.5
20260507013002 41 360 0.0 2.0 0.00 0.00 0.00 65 1014.4
20260507011504 41 360 0.0 3.0 0.00 0.00 0.00 64 1014.4
20260507010002 41 360 1.0 5.0 0.00 0.00 0.00 64 1014.3
20260507004600 41 288 2.0 7.0 0.00 0.00 0.00 63 1014.3
20260507003100 42 322 1.0 6.0 0.00 0.00 0.00 63 1014.2
20260507001600 42 279 1.0 7.0 0.00 0.00 0.00 61 1014.0
20260507000058 42 273 2.0 8.0 0.00 0.00 0.00 61 1014.0
20260506234558 42 294 2.0 8.0 0.00 0.00 0.00 61 1014.0
20260506233107 42 308 3.0 8.0 0.00 0.00 0.00 61 1014.0
20260506231613 43 234 0.0 8.0 0.00 0.00 0.00 61 1013.8
20260506230103 43 302 2.0 7.0 0.00 0.00 0.00 61 1014.0
20260506224556 43 296 4.0 8.0 0.00 0.00 0.00 61 1014.2
20260506223056 43 281 4.0 10.0 0.00 0.00 0.00 61 1014.1
20260506221601 43 317 6.0 13.0 0.00 0.00 0.00 60 1014.0
20260506220059 44 40 4.0 12.0 0.00 0.00 0.00 60 1014.0
20260506214601 44 282 5.0 9.0 0.00 0.00 0.00 60 1013.9
20260506213054 45 303 5.0 10.0 0.00 0.00 0.00 59 1013.9
20260506211607 45 338 4.0 10.0 0.00 0.00 0.00 59 1013.8
20260506210053 45 296 2.0 12.0 0.00 0.00 0.00 57 1013.9
20260506204553 45 292 7.0 16.0 0.00 0.00 0.00 56 1014.0
20260506203055 45 282 3.0 12.0 0.00 0.00 0.00 59 1013.9
20260506201552 46 233 4.0 14.0 0.00 0.00 0.00 58 1014.0
20260506200051 46 189 3.0 13.0 0.00 0.00 0.00 58 1014.0
20260506194554 47 261 7.0 13.0 0.00 0.00 0.00 56 1014.1
20260506193049 46 346 5.0 15.0 0.00 0.00 0.00 58 1014.2
20260506191547 44 229 4.0 11.0 0.00 0.00 0.00 63 1014.1
20260506190146 43 321 6.0 10.0 0.00 0.00 0.00 64 1014.3
20260506184545 43 223 5.0 12.0 0.00 0.00 0.00 62 1014.2
20260506183044 43 294 6.0 12.0 0.00 0.00 0.00 62 1014.2
20260506181544 44 292 6.0 11.0 0.00 0.00 0.00 60 1014.2
20260506180045 43 313 8.0 15.0 0.00 0.00 0.00 61 1014.3
20260506174546 45 283 7.0 18.0 0.00 0.00 0.00 58 1014.4
20260506173045 44 267 7.0 12.0 0.00 0.00 0.00 59 1014.5
20260506171549 44 298 5.0 14.0 0.00 0.00 0.00 59 1014.7
20260506170040 43 324 6.0 13.0 0.00 0.00 0.00 58 1014.7
20260506164552 42 205 7.0 15.0 0.00 0.00 0.00 60 1014.7
20260506163041 43 254 4.0 12.0 0.00 0.00 0.00 57 1014.7
20260506161538 43 317 3.0 12.0 0.00 0.00 0.00 57 1014.7
20260506160037 44 302 6.0 15.0 0.00 0.00 0.00 53 1014.6
20260506154542 45 275 5.0 11.0 0.00 0.00 0.00 52 1014.4
20260506153035 44 184 5.0 12.0 0.00 0.00 0.00 54 1014.5
20260506151533 43 242 3.0 12.0 0.00 0.00 0.00 56 1014.2
20260506150029 43 284 2.0 10.0 0.00 0.00 0.00 56 1014.1
20260506144531 42 311 3.0 10.0 0.00 0.00 0.00 55 1014.2
20260506143034 42 301 6.0 11.0 0.00 0.00 0.00 54 1014.2